Location: Congrier
(47.8099°N, 1.1170°W)
Time: 00:26:58
(UTC+00:00)

CZ-6A DEB - Pass Details

Date: 26 February 2024
Orbit: 823 x 838 km, 98.8° (Epoch: 24 April)

Event Time Altitude Azimuth Distance (km) Brightness Sun altitude
Rises 19:08:59 0° 216° (SW) 3,385 ? -15.1°
Reaches altitude 10° 19:12:32 10° 240° (WSW) 2,457 ? -15.7°
Maximum altitude 19:15:25 14° 273° (W) 2,158 ? -16.2°
Drops below altitude 10° 19:18:20 10° 305° (NW) 2,465 ? -16.6°
Sets 19:21:55 0° 330° (NNW) 3,404 ? -17.2°
